| time (UTC) | temp C | wind direction | speed KPH | gust KPH | rain 1hr cm | rain 24hr cm | rain mn cm | humidity % | barometer mb |
| 20260507183521 | 17 | 211 | 1.6 | 8.0 | 0.00 | 0.00 | 0.00 | 41 | 1016.3 |
| 20260507182536 | 17 | 307 | 0.0 | 6.4 | 0.00 | 0.00 | 0.00 | 40 | 1016.2 |
| 20260507181521 | 16 | 277 | 3.2 | 16.1 | 0.00 | 0.00 | 0.00 | 38 | 1016.4 |
| 20260507180521 | 17 | 260 | 3.2 | 12.9 | 0.00 | 0.00 | 0.00 | 40 | 1016.5 |
| 20260507175541 | 17 | 266 | 1.6 | 9.7 | 0.00 | 0.00 | 0.00 | 44 | 1016.6 |
| 20260507174521 | 16 | 261 | 1.6 | 6.4 | 0.00 | 0.00 | 0.00 | 40 | 1016.8 |
| 20260507173521 | 16 | 267 | 0.0 | 8.0 | 0.00 | 0.00 | 0.00 | 39 | 1016.9 |
| 20260507172522 | 16 | 273 | 4.8 | 11.3 | 0.00 | 0.00 | 0.00 | 42 | 1017.1 |
| 20260507171517 | 16 | 280 | 3.2 | 11.3 | 0.00 | 0.00 | 0.00 | 41 | 1017.1 |
| 20260507170541 | 16 | 267 | 1.6 | 12.9 | 0.00 | 0.00 | 0.00 | 49 | 1017.3 |
| 20260507165541 | 16 | 259 | 3.2 | 9.7 | 0.00 | 0.00 | 0.00 | 39 | 1017.3 |
| 20260507164521 | 16 | 270 | 1.6 | 8.0 | 0.00 | 0.00 | 0.00 | 48 | 1017.4 |
| 20260507163521 | 16 | 269 | 1.6 | 9.7 | 0.00 | 0.00 | 0.00 | 46 | 1017.5 |
| 20260507162521 | 15 | 259 | 1.6 | 9.7 | 0.00 | 0.00 | 0.00 | 37 | 1017.6 |
| 20260507161516 | 15 | 280 | 1.6 | 8.0 | 0.00 | 0.00 | 0.00 | 44 | 1017.6 |
| 20260507160539 | 15 | 273 | 1.6 | 8.0 | 0.00 | 0.00 | 0.00 | 42 | 1017.5 |
| 20260507155521 | 15 | 266 | 1.6 | 8.0 | 0.00 | 0.00 | 0.00 | 40 | 1017.6 |
| 20260507154521 | 15 | 243 | 1.6 | 8.0 | 0.00 | 0.00 | 0.00 | 43 | 1017.7 |
| 20260507153541 | 15 | 112 | 0.0 | 6.4 | 0.00 | 0.00 | 0.00 | 44 | 1017.8 |
| 20260507152519 | 15 | 164 | 1.6 | 4.8 | 0.00 | 0.00 | 0.00 | 47 | 1017.9 |
| 20260507151541 | 13 | 132 | 1.6 | 6.4 | 0.00 | 0.00 | 0.00 | 44 | 1017.9 |
| 20260507150515 | 13 | 127 | 0.0 | 3.2 | 0.00 | 0.00 | 0.00 | 44 | 1017.9 |
| 20260507145521 | 13 | 108 | 1.6 | 4.8 | 0.00 | 0.00 | 0.00 | 50 | 1017.9 |
| 20260507144521 | 12 | 76 | 0.0 | 4.8 | 0.00 | 0.00 | 0.00 | 60 | 1017.9 |
| 20260507143521 | 12 | 63 | 0.0 | 4.8 | 0.00 | 0.00 | 0.00 | 61 | 1018.0 |
| 20260507142520 | 12 | 61 | 0.0 | 4.8 | 0.00 | 0.00 | 0.00 | 62 | 1018.1 |
| 20260507141521 | 11 | 54 | 0.0 | 4.8 | 0.00 | 0.00 | 0.00 | 63 | 1018.0 |
| 20260507140516 | 11 | 53 | 0.0 | 1.6 | 0.00 | 0.00 | 0.00 | 65 | 1017.9 |
| 20260507135515 | 11 | 53 | 0.0 | 3.2 | 0.00 | 0.00 | 0.00 | 67 | 1017.8 |
| 20260507134521 | 10 | 44 | 0.0 | 3.2 | 0.00 | 0.00 | 0.00 | 70 | 1017.9 |
| 20260507133521 | 10 | 44 | 0.0 | 3.2 | 0.00 | 0.00 | 0.00 | 71 | 1017.9 |
| 20260507132521 | 10 | 44 | 0.0 | 1.6 | 0.00 | 0.00 | 0.00 | 74 | 1017.9 |
| 20260507131521 | 9 | 0.0 | 3.2 | 0.00 | 0.00 | 0.00 | 78 | 1017.9 | |
| 20260507130521 | 8 | 0.0 | 0.0 | 0.00 | 0.00 | 0.00 | 84 | 1018.0 | |
| 20260507125536 | 8 | 0.0 | 0.0 | 0.00 | 0.00 | 0.00 | 88 | 1017.8 | |
| 20260507124516 | 7 | 44 | 0.0 | 3.2 | 0.00 | 0.00 | 0.00 | 92 | 1017.6 |
| 20260507123521 | 7 | 0.0 | 0.0 | 0.00 | 0.00 | 0.00 | 92 | 1017.6 | |
| 20260507122521 | 6 | 0.0 | 0.0 | 0.00 | 0.00 | 0.00 | 92 | 1017.6 | |
| 20260507121521 | 6 | 0.0 | 0.0 | 0.00 | 0.00 | 0.00 | 92 | 1017.5 | |
| 20260507120521 | 5 | 0.0 | 0.0 | 0.00 | 0.00 | 0.00 | 92 | 1017.5 | |
| 20260507115541 | 5 | 0.0 | 0.0 | 0.00 | 0.00 | 0.00 | 92 | 1017.5 | |
| 20260507114515 | 5 | 0.0 | 0.0 | 0.00 | 0.00 | 0.00 | 92 | 1017.4 | |
| 20260507113521 | 5 | 0.0 | 0.0 | 0.00 | 0.00 | 0.00 | 92 | 1017.3 | |
| 20260507112521 | 5 | 0.0 | 0.0 | 0.00 | 0.00 | 0.00 | 92 | 1017.2 | |
| 20260507111521 | 5 | 0.0 | 0.0 | 0.00 | 0.00 | 0.00 | 92 | 1017.1 | |
| 20260507110522 | 5 | 0.0 | 0.0 | 0.00 | 0.00 | 0.00 | 91 | 1017.0 | |
| 20260507105541 | 5 | 0.0 | 0.0 | 0.00 | 0.00 | 0.00 | 91 | 1016.9 | |
| 20260507104521 | 5 | 0.0 | 0.0 | 0.00 | 0.00 | 0.00 | 91 | 1016.9 | |
| 20260507103516 | 5 | 0.0 | 0.0 | 0.00 | 0.00 | 0.00 | 91 | 1016.9 | |
| 20260507102521 | 5 | 0.0 | 0.0 | 0.00 | 0.00 | 0.00 | 91 | 1017.0 | |
| 20260507101521 | 5 | 0.0 | 0.0 | 0.00 | 0.00 | 0.00 | 90 | 1017.1 | |
| 20260507100521 | 5 | 0.0 | 0.0 | 0.00 | 0.00 | 0.00 | 91 | 1017.1 | |
| 20260507095521 | 5 | 0.0 | 0.0 | 0.00 | 0.00 | 0.00 | 90 | 1017.1 | |
| 20260507094521 | 5 | 0.0 | 0.0 | 0.00 | 0.00 | 0.00 | 89 | 1017.3 | |
| 20260507093521 | 6 | 0.0 | 0.0 | 0.00 | 0.00 | 0.00 | 88 | 1017.2 | |
| 20260507092535 | 6 | 0.0 | 0.0 | 0.00 | 0.00 | 0.00 | 88 | 1017.2 | |
| 20260507091521 | 6 | 0.0 | 0.0 | 0.00 | 0.00 | 0.00 | 88 | 1017.2 | |
| 20260507090520 | 6 | 0.0 | 0.0 | 0.00 | 0.00 | 0.00 | 88 | 1017.3 | |
| 20260507085541 | 6 | 0.0 | 0.0 | 0.00 | 0.00 | 0.00 | 89 | 1017.2 | |
| 20260507084521 | 6 | 0.0 | 0.0 | 0.00 | 0.00 | 0.00 | 89 | 1017.0 | |
| 20260507083521 | 6 | 0.0 | 0.0 | 0.00 | 0.00 | 0.00 | 88 | 1016.8 | |
| 20260507082536 | 6 | 0.0 | 0.0 | 0.00 | 0.00 | 0.00 | 88 | 1016.6 | |
| 20260507081515 | 7 | 0.0 | 0.0 | 0.00 | 0.00 | 0.00 | 88 | 1016.7 | |
| 20260507080521 | 7 | 0.0 | 0.0 | 0.00 | 0.00 | 0.00 | 88 | 1016.7 | |
| 20260507075520 | 7 | 0.0 | 0.0 | 0.00 | 0.00 | 0.00 | 88 | 1016.6 | |
| 20260507074520 | 7 | 0.0 | 0.0 | 0.00 | 0.00 | 0.00 | 89 | 1016.5 | |
| 20260507073520 | 6 | 0.0 | 0.0 | 0.00 | 0.00 | 0.00 | 91 | 1016.5 | |
| 20260507072521 | 6 | 0.0 | 0.0 | 0.00 | 0.00 | 0.00 | 90 | 1016.5 | |
| 20260507071515 | 6 | 0.0 | 0.0 | 0.00 | 0.00 | 0.00 | 90 | 1016.5 | |
| 20260507070541 | 7 | 0.0 | 0.0 | 0.00 | 0.00 | 0.00 | 90 | 1016.4 | |
| 20260507065521 | 7 | 0.0 | 0.0 | 0.00 | 0.00 | 0.00 | 90 | 1016.2 | |
| 20260507064521 | 7 | 0.0 | 0.0 | 0.00 | 0.00 | 0.00 | 90 | 1016.3 | |
| 20260507063521 | 7 | 0.0 | 0.0 | 0.00 | 0.03 | 0.00 | 90 | 1016.3 | |
| 20260507062520 | 7 | 0.0 | 0.0 | 0.00 | 0.03 | 0.00 | 90 | 1016.4 | |
| 20260507061520 | 7 | 0.0 | 0.0 | 0.00 | 0.05 | 0.00 | 90 | 1016.4 | |
| 20260507060535 | 7 | 0.0 | 0.0 | 0.00 | 0.05 | 0.00 | 90 | 1016.4 | |
| 20260507055541 | 7 | 0.0 | 0.0 | 0.00 | 0.05 | 0.00 | 90 | 1016.5 | |
| 20260507054601 | 7 | 0.0 | 0.0 | 0.00 | 0.05 | 0.00 | 90 | 1016.5 | |
| 20260507053521 | 7 | 0.0 | 0.0 | 0.00 | 0.05 | 0.00 | 89 | 1016.6 | |
| 20260507052521 | 7 | 0.0 | 0.0 | 0.00 | 0.05 | 0.00 | 89 | 1016.5 | |
| 20260507051521 | 7 | 0.0 | 0.0 | 0.00 | 0.05 | 0.00 | 88 | 1016.5 | |
| 20260507050521 | 8 | 0.0 | 0.0 | 0.00 | 0.05 | 0.00 | 85 | 1016.4 | |
| 20260507045522 | 8 | 0.0 | 0.0 | 0.00 | 0.10 | 0.08 | 85 | 1016.4 | |
| 20260507044516 | 8 | 0.0 | 0.0 | 0.00 | 0.15 | 0.08 | 85 | 1016.1 | |
| 20260507043516 | 8 | 0.0 | 0.0 | 0.00 | 0.23 | 0.08 | 83 | 1016.2 | |
| 20260507042521 | 8 | 0.0 | 0.0 | 0.00 | 0.25 | 0.08 | 85 | 1016.2 | |
| 20260507041521 | 8 | 0.0 | 0.0 | 0.00 | 0.25 | 0.08 | 86 | 1016.2 | |
| 20260507040542 | 8 | 0.0 | 0.0 | 0.00 | 0.25 | 0.08 | 85 | 1016.1 | |
| 20260507035521 | 8 | 0.0 | 0.0 | 0.00 | 0.25 | 0.08 | 84 | 1016.0 | |
| 20260507034521 | 8 | 0.0 | 0.0 | 0.00 | 0.28 | 0.08 | 83 | 1016.1 | |
| 20260507033517 | 8 | 0.0 | 0.0 | 0.00 | 0.28 | 0.08 | 80 | 1016.3 | |
| 20260507032516 | 8 | 0.0 | 0.0 | 0.00 | 0.30 | 0.08 | 80 | 1016.4 | |
| 20260507031541 | 9 | 0.0 | 0.0 | 0.00 | 0.38 | 0.08 | 82 | 1016.3 | |
| 20260507030521 | 9 | 0.0 | 0.0 | 0.00 | 0.41 | 0.08 | 81 | 1015.8 | |
| 20260507025542 | 9 | 0.0 | 0.0 | 0.00 | 0.48 | 0.08 | 77 | 1015.8 | |
| 20260507024521 | 9 | 0.0 | 0.0 | 0.00 | 0.53 | 0.08 | 76 | 1016.1 | |
| 20260507023521 | 10 | 0.0 | 0.0 | 0.00 | 0.56 | 0.08 | 74 | 1016.2 | |
| 20260507022516 | 10 | 0.0 | 0.0 | 0.00 | 0.58 | 0.08 | 74 | 1016.1 | |
| 20260507021521 | 10 | 0.0 | 0.0 | 0.00 | 0.58 | 0.08 | 70 | 1015.9 | |
| 20260507020521 | 10 | 0.0 | 0.0 | 0.00 | 0.74 | 0.08 | 72 | 1015.9 | |
| 20260507015522 | 11 | 0.0 | 0.0 | 0.00 | 0.76 | 0.08 | 73 | 1015.8 | |
| 20260507014521 | 11 | 0.0 | 0.0 | 0.00 | 0.81 | 0.08 | 73 | 1015.5 | |
| 20260507013521 | 11 | 0.0 | 0.0 | 0.00 | 0.84 | 0.08 | 72 | 1015.5 | |
| 20260507012521 | 12 | 0.0 | 0.0 | 0.00 | 0.84 | 0.08 | 66 | 1015.5 | |
| 20260507011516 | 12 | 329 | 0.0 | 3.2 | 0.00 | 0.86 | 0.08 | 66 | 1015.5 |
| 20260507010521 | 13 | 329 | 0.0 | 3.2 | 0.00 | 0.94 | 0.08 | 65 | 1015.3 |
| 20260507005521 | 13 | 330 | 0.0 | 3.2 | 0.00 | 0.99 | 0.08 | 62 | 1015.1 |
| 20260507004601 | 13 | 0.0 | 0.0 | 0.00 | 1.17 | 0.08 | 61 | 1014.9 | |
| 20260507003521 | 14 | 330 | 0.0 | 3.2 | 0.00 | 1.17 | 0.08 | 61 | 1014.8 |
| 20260507002541 | 15 | 330 | 1.6 | 6.4 | 0.00 | 1.17 | 0.08 | 57 | 1014.8 |
| 20260507001516 | 15 | 329 | 1.6 | 6.4 | 0.00 | 1.17 | 0.08 | 57 | 1014.8 |
| 20260507000516 | 15 | 334 | 0.0 | 4.8 | 0.00 | 1.27 | 0.08 | 57 | 1014.7 |
| 20260506235521 | 15 | 334 | 3.2 | 8.0 | 0.00 | 1.27 | 0.08 | 56 | 1014.6 |
| 20260506234521 | 15 | 335 | 3.2 | 11.3 | 0.00 | 1.27 | 0.08 | 53 | 1014.4 |
| 20260506233521 | 16 | 334 | 3.2 | 9.7 | 0.00 | 1.27 | 0.08 | 51 | 1014.4 |
| 20260506232601 | 16 | 336 | 1.6 | 9.7 | 0.00 | 1.27 | 0.08 | 54 | 1014.3 |
| 20260506231522 | 16 | 350 | 3.2 | 8.0 | 0.00 | 1.27 | 0.08 | 56 | 1014.3 |
| 20260506230537 | 15 | 347 | 3.2 | 6.4 | 0.00 | 1.27 | 0.08 | 56 | 1014.4 |
| 20260506225541 | 16 | 345 | 4.8 | 12.9 | 0.00 | 1.27 | 0.08 | 55 | 1014.4 |
| 20260506224521 | 16 | 338 | 1.6 | 6.4 | 0.00 | 1.27 | 0.08 | 56 | 1014.5 |
| 20260506223521 | 16 | 327 | 1.6 | 8.0 | 0.00 | 1.27 | 0.08 | 51 | 1014.8 |
| 20260506222521 | 16 | 308 | 3.2 | 8.0 | 0.00 | 1.27 | 0.08 | 54 | 1014.8 |
| 20260506221602 | 15 | 315 | 0.0 | 3.2 | 0.00 | 1.27 | 0.08 | 60 | 1014.7 |
| 20260506220541 | 16 | 330 | 0.0 | 6.4 | 0.00 | 1.27 | 0.08 | 56 | 1015.0 |
| 20260506215516 | 15 | 341 | 0.0 | 1.6 | 0.00 | 1.30 | 0.08 | 63 | 1015.1 |
| 20260506214521 | 15 | 341 | 0.0 | 6.4 | 0.00 | 1.30 | 0.08 | 64 | 1015.1 |
| 20260506213521 | 15 | 340 | 1.6 | 8.0 | 0.00 | 1.30 | 0.08 | 59 | 1015.0 |
| 20260506212521 | 16 | 325 | 3.2 | 6.4 | 0.00 | 1.30 | 0.08 | 60 | 1015.1 |
| 20260506211521 | 16 | 330 | 3.2 | 8.0 | 0.00 | 1.30 | 0.08 | 56 | 1015.0 |
| 20260506210521 | 16 | 298 | 1.6 | 8.0 | 0.00 | 1.30 | 0.08 | 55 | 1015.0 |
| 20260506205536 | 16 | 305 | 1.6 | 6.4 | 0.00 | 1.30 | 0.08 | 53 | 1015.0 |
| 20260506204541 | 16 | 344 | 1.6 | 8.0 | 0.00 | 1.32 | 0.08 | 53 | 1015.1 |
| 20260506203521 | 16 | 330 | 3.2 | 6.4 | 0.00 | 1.32 | 0.08 | 56 | 1015.2 |
| 20260506202521 | 16 | 334 | 1.6 | 6.4 | 0.00 | 1.32 | 0.08 | 53 | 1015.3 |
| 20260506201521 | 16 | 349 | 3.2 | 8.0 | 0.00 | 1.35 | 0.08 | 50 | 1015.6 |
| 20260506200521 | 16 | 272 | 3.2 | 11.3 | 0.00 | 1.35 | 0.08 | 52 | 1015.6 |
| 20260506195521 | 16 | 314 | 1.6 | 6.4 | 0.00 | 1.35 | 0.08 | 59 | 1015.4 |
| 20260506194516 | 16 | 331 | 1.6 | 8.0 | 0.00 | 1.35 | 0.08 | 56 | 1015.3 |
| 20260506193521 | 16 | 299 | 3.2 | 8.0 | 0.00 | 1.35 | 0.08 | 60 | 1015.2 |
| 20260506192541 | 17 | 327 | 3.2 | 8.0 | 0.00 | 1.35 | 0.08 | 55 | 1015.3 |
| 20260506191521 | 16 | 328 | 1.6 | 8.0 | 0.00 | 1.35 | 0.08 | 62 | 1015.2 |
| 20260506190521 | 16 | 350 | 0.0 | 8.0 | 0.00 | 1.37 | 0.08 | 54 | 1015.2 |
| 20260506185541 | 16 | 272 | 1.6 | 9.7 | 0.00 | 1.40 | 0.08 | 63 | 1015.1 |
| 20260506184516 | 16 | 322 | 0.0 | 11.3 | 0.00 | 1.52 | 0.08 | 62 | 1015.2 |